Torna al catalogo

STARLINK-36714

AttivoComunicazioniVLEO
NORAD 67924·PAYLOAD·🇺🇸 United States

Lanciato Feb 22, 2026 da Vandenberg Space Force Base

Loading…

Prossimi Passaggi (prossime 24 ore)

TLE

AggiornatoSource: CelesTrak SupGP

Epoca: Sep 14, 2026, 22:47 UTC

1 67924C 26036W   26257.94979167  .00036232  00000+0  13125-2 0  2575
2 67924  43.0006 256.5558 0001440 263.5192 160.5097 15.27557325    17

Traccia STARLINK-36714 in tempo reale con AllMySat

Download on the App Store